EHI
0 0 0 0 0 0 0 0 0 0 0 0 0 0 0 0 0 0 0 0 0 0 0 0 0 0 0 0 0 0 0 0 0 0 0 0 0 0 0 0 0 0 0
0 0 0 0 0 0 0 0 0 0 0 0 0 0 0 0 0 0 0 0 0 0 0 0 0 0 0 0 0 0 0 0 0 0 0 0 0 0 0 0 0 0 0
0 0 0 0 0 0 0 0 0 0 0 0 0 0 0 0 0 0 0 0 0 0 0 0 0 0 0 0 0 0 0 0 0 0 0 0 0 0 0 0 0 0 0
0 0 0 0 0 0 0 0 0 0 0 0 0 0 0 0 0 0 0 0 0 0 0 0 0 0 0 0 0 0 0 0 0 0 0 0 0 0 0 0 0 0 0
0 0 0 0 0 0 0 0 0 0 0 0 0 0 0 0 0 0 0 0 0 0 0 0 0 0 0 0 0 0 0 0 0 0 0 0 0 0 0 0 0 0 0
0 0 0 0 0 0 0 0 0 0 0 0 0 0 0 0 0 0 0 0 0 0 0 0 0 0 0 0 0 0 0 0 0 0 0 0 0 0 0 0 0 0 0
0 0 0 0 0 0 0 0 0 0 0 0 0 0 0 0 0 0 0 0 0 0 0 0 0 0 0 0 0 0 0 0 0 0 0 0 0 0 0 0 0 0 0
0 0 0 0 0 0 0 0 0 0 0 0 0 0 0 0 0 0 0 0 0 0 0 0 0 0 0 0 0 0 0 0 0 0 0 0 0 0 0 0 0 0 0
0 0 0 0 0 0 0 0 0 0 0 0 0 0 0 0 0 0 0 0 0 0 0 0 0 0 0 0 0 0 0 0 0 0 0 0 0 0 0 0 0 0 0
0 0 0 0 0 0 0 0 0 0 0 0 0 0 0 0 0 0 0 0 0 0 0 0 0 0 0 0 0 0 0 0 0 0 0 0 0 0 0 0 0 0 0
0 0 0 0 0 0 0 0 0 0 0 0 0 0 0 0 0 0 0 0 0 0 0 0 0 0 0 0 0 0 0 0 0 0 0 0 0 0 0 0 0 0 0
0 0 0 0 0 0 0 0 0 0 0 0 0 0 0 0 0 0 0 0 0 0 0 0 0 0 0 0 0 0 0 0 0 0 0 0 0 0 0 0 0 0 0
0 0 0 0 0 0 0 0 0 0 0 0 0 0 0 0 0 0 0 0 0 0 0 0 0 0 0 0 0 0 0 0 0 0 0 0 0 0 0 0 0 0 0
0 0 0 0 0 0 0 0 0 0 0 0 0 0 0 0 0 0 0 0 0 0 0 0 0 0 0 0 0 0 0 0 0 0 0 0 0 0 0 0 0 0 0
0 0 0 0 0 0 0 0 0 0 0 0 0 0 0 0 0 0 0 0 0 0 0 0 0 0 0 0 0 0 0 0 0 0 0 0 0 0 0 0 0 0 0
0 0 0 0 0 0 0 0 0 0 0 0 0 0 0 0 0 0 0 0 0 0 0 0 0 0 0 0 0 0 0 0 0 0 0 0 0 0 0 0 0 0 0
0 0 0 0 0 0 0 0 0 0 0 0 0 0 0 0 0 0 0 0 0 0 0 0 0 0 0 0 0 0 0 0 0 0 0 0 0 0 0 0 0 0 0
0 0 0 0 0 0 0 0 0 0 0 0 0 0 0 0 0 0 0 0 0 0 0 0 0 0 0 0 0 0 0 0 0 0 0 0 0 0 0 0 0 0 0
0 0 0 0 0 0 0 0 0 0 0 0 0 0 0 0 0 0 0 0 0 0 0 0 0 0 0 0 0 0 0 0 0 0 0 0 0 0 0 0 0 0 0
0 0 0 0 0 0 0 0 0 0 0 0 0 0 0 0 0 0 0 0 0 0 0 0 0 0 0 0 0 0 0 0 0 0 0 0 0 0 0 0 0 0 0
0 0 0 0 0 0 0 0 0 0 0 0 0 0 0 0 0 0 0 0 0 0 0 0 0 0 0 0 0 0 0 0 0 0 0 0 0 0 0 0 0 0 0
0 0 0 0 0 0 0 0 0 0 0 0 0 0 0 0 0 0 0 0 0 0 0 0 0 0 0 0 0 0 0 0 0 0 0 0 0 0 0 0 0 0 0
0 0 0 0 0 0 0 0 0 0 0 0 0 0 0 0 0 0 0 0 0 0 0 0 0 0 0 0 0 0 0 0 0 0 0 0 0 0 0 0 0 0 0
0 0 0 0 0 0 0 0 0 0 0 0 0 0 0 0 0 0 0 0 0 0 0 0 0 0 0 0 0 0 0 0 0 0 0 0 0 0 0 0 0 0 0
0 0 0 0 0 0 0 0 0 0 0 0 0 0 0 0 0 0 0 0 0 0 0 0 0 0 0 0 0 0 0 0 0 0 0 0 0 0 0 0 0 0 0
0 0 0 0 0 0 0 0 0 0 0 0 0 0 0 0 0 0 0 0 0 0 0 0 0 0 0 0 0 0 0 0 0 0 0 0 0 0 0 0 0 0 0
Wind_Speed
8 8 8 8 8 9 9 9 8 8 9 9 9 10 10 10 10 10 10 9 10 10 9 9 9 7 6 5 5 4 4 5 8 7 6 5 4 3 4 3 4 4 6
8 8 8 8 9 9 9 9 8 8 8 9 9 10 11 11 10 10 11 11 11 11 10 10 9 7 8 6 5 6 5 5 8 9 7 6 5 4 3 3 3 2 3
8 8 8 9 9 9 9 9 9 9 9 9 10 11 11 11 11 10 11 11 11 11 11 10 10 9 9 7 7 7 6 6 6 7 7 5 4 4 4 3 3 1 2
8 8 9 8 9 9 9 9 9 9 9 9 10 10 10 10 10 10 10 11 11 11 11 10 10 9 8 8 7 7 7 7 6 6 6 5 5 4 2 3 3 3 2
8 9 8 8 8 8 9 9 9 9 9 9 10 10 10 9 9 9 9 10 10 11 11 11 11 12 12 9 7 6 6 5 5 5 5 4 4 2 1 1 1 2 3
8 8 8 8 8 8 8 9 9 9 9 10 10 10 11 9 10 11 9 10 10 10 10 9 10 11 11 12 12 12 9 5 5 3 4 4 4 3 2 1 1 1 2
8 7 8 8 8 8 8 9 9 8 9 9 10 10 11 10 10 10 10 9 10 9 9 8 8 8 7 8 8 8 9 9 7 4 5 5 4 3 2 1 2 3 3
7 7 7 7 8 8 8 9 8 8 8 8 9 9 9 9 9 8 6 8 9 9 8 8 8 8 8 6 6 7 7 7 4 4 5 4 4 3 2 2 2 3 4
8 7 8 8 8 8 8 8 7 7 7 7 8 9 9 9 9 8 7 6 7 8 8 9 8 8 8 8 4 6 6 5 5 3 3 2 3 3 4 4 3 3 2
8 8 7 7 7 8 8 7 7 6 7 7 8 8 9 9 9 11 10 4 6 6 7 8 10 8 8 9 4 4 5 4 3 4 3 4 4 4 5 4 5 5 4
8 8 7 7 7 7 7 6 6 6 7 7 7 8 8 8 8 11 12 5 5 5 5 6 7 7 6 6 5 5 4 4 0 1 2 2 1 1 2 1 3 5 6
8 8 7 6 6 7 6 6 6 6 7 6 6 6 6 6 7 7 8 8 8 5 5 6 7 5 4 5 4 4 4 7 2 1 1 2 2 2 3 3 3 4 5
8 7 7 6 5 5 5 6 5 4 4 4 4 5 5 5 5 3 3 3 5 4 5 5 3 1 2 3 3 2 5 2 3 2 2 2 2 3 3 2 3 4 6
8 7 6 6 6 5 3 3 3 4 4 4 4 4 4 4 4 3 3 3 4 2 3 4 4 3 1 1 2 1 2 4 4 3 3 3 3 2 3 3 4 4 4
7 6 6 6 6 5 5 6 5 7 6 5 4 4 3 5 7 7 7 6 6 5 4 1 1 1 1 2 2 2 2 1 1 3 3 3 3 3 3 3 4 5 4
6 6 5 5 5 5 6 6 8 6 5 5 7 6 6 6 3 3 3 4 4 6 6 1 2 2 2 2 2 2 2 3 3 3 3 3 4 4 4 4 4 4 4
6 5 4 5 5 4 5 5 6 5 3 2 1 2 3 2 1 2 3 4 6 6 4 1 2 2 2 2 2 3 3 3 3 3 3 4 4 4 4 4 4 5 5
6 5 4 4 4 4 4 3 3 4 5 5 5 4 3 3 3 4 5 6 4 4 1 2 2 2 2 2 3 3 3 2 2 3 3 4 4 4 4 5 4 5 6
5 5 4 4 4 4 3 3 3 3 2 3 5 7 6 6 7 6 7 5 2 2 2 2 2 2 2 2 2 2 3 3 3 4 4 4 4 5 5 5 5 4 5
5 4 2 3 4 3 3 2 2 2 2 2 2 3 4 5 4 4 3 1 2 2 2 2 2 2 2 3 2 2 2 2 3 3 3 3 4 5 5 6 6 6 6
6 7 6 4 3 2 2 1 1 1 1 1 2 4 3 2 1 1 1 1 2 2 2 2 1 1 1 2 2 2 3 3 3 3 3 3 4 5 5 6 6 6 6
5 6 6 3 3 2 1 1 1 1 1 1 2 5 5 5 1 1 1 1 1 1 1 2 3 2 2 3 3 3 3 3 3 3 4 4 5 5 6 6 6 6 7
4 5 5 4 3 3 4 3 2 2 1 1 1 1 3 2 1 1 1 1 2 2 2 2 4 3 2 2 3 4 4 4 4 4 5 5 6 5 6 6 8 8 8
5 5 5 5 4 4 4 3 3 2 2 2 2 2 2 2 2 2 3 3 3 3 3 3 4 4 5 5 4 5 3 3 4 4 6 6 7 7 6 6 8 9 9
6 6 5 5 5 4 4 3 3 3 3 3 3 3 3 3 3 3 4 3 4 4 5 5 4 5 6 7 7 5 1 2 4 6 7 7 8 8 8 9 8 9 9
7 6 6 5 5 4 4 4 4 3 3 3 3 4 4 4 4 4 4 4 5 5 5 5 6 7 8 8 7 4 5 6 6 7 7 8 9 9 9 9 11 11 11
Wind_Direction
74 75 74 70 69 69 67 65 64 65 65 65 67 68 67 64 63 65 65 65 69 70 71 74 74 76 89 103 110 112 117 121 123 128 130 134 154 157 148 171 164 186 150
78 77 77 76 72 70 69 67 68 66 67 69 70 70 69 66 64 66 67 65 66 68 69 72 75 81 83 85 93 96 98 112 132 134 140 146 151 149 149 187 171 170 142
86 84 80 77 75 73 71 68 69 70 68 69 71 70 69 68 68 67 67 67 66 66 66 68 70 74 78 80 84 93 104 114 122 133 133 132 145 145 169 177 159 180 191
91 87 81 78 76 74 71 69 69 71 73 72 71 71 71 70 70 71 69 68 68 67 66 65 62 64 71 84 89 93 100 112 120 130 134 141 141 148 184 178 169 180 202
97 92 88 85 82 79 75 73 72 72 74 74 75 72 69 65 57 62 77 74 72 71 69 68 65 62 53 49 68 87 100 113 125 127 130 135 125 141 138 145 167 190 172
100 96 93 90 87 83 78 76 74 72 71 73 71 71 67 62 41 35 47 73 69 69 71 74 81 74 75 67 59 55 48 62 76 93 103 93 90 80 59 331 307 260 165
103 99 97 94 92 90 87 82 78 76 75 75 75 75 74 61 44 42 35 65 69 66 65 65 71 73 73 88 98 102 75 56 37 22 69 67 84 67 13 8 27 345 354
105 102 99 97 92 90 86 83 83 82 78 77 76 77 77 59 37 35 26 71 72 68 65 65 69 64 46 36 81 86 86 75 48 46 59 51 53 35 356 334 316 258 238
112 107 104 102 100 97 90 87 85 86 84 82 77 78 78 67 32 13 356 84 80 73 66 58 57 69 32 354 62 85 87 97 112 80 41 28 6 319 312 297 309 308 323
111 109 106 105 102 98 95 93 92 92 90 88 79 74 74 67 38 16 349 70 80 86 89 88 66 46 25 360 29 68 77 69 76 129 162 199 208 191 219 277 319 329 334
115 114 111 108 108 106 103 101 104 100 92 89 89 84 76 67 61 34 13 24 46 63 75 77 71 45 31 9 354 41 37 333 346 148 154 162 174 173 200 248 321 317 327
120 117 114 113 110 109 109 108 107 112 115 108 103 99 93 80 57 51 36 28 1 48 52 58 68 44 38 21 28 33 313 285 282 46 44 35 26 23 18 349 334 312 302
119 117 115 110 103 107 113 118 124 125 115 114 114 103 97 98 109 116 84 47 12 31 54 56 42 326 225 125 93 311 287 304 13 20 28 23 14 11 317 295 271 262 262
123 120 122 118 113 102 101 99 95 95 97 102 99 100 103 102 78 76 108 135 167 139 95 141 194 236 234 104 186 228 5 25 358 0 3 355 343 326 317 335 323 316 302
125 125 126 118 108 104 83 52 47 59 38 29 59 72 72 78 55 19 357 16 12 22 332 239 134 121 107 73 62 47 20 35 359 1 350 340 341 338 339 338 320 310 314
136 137 132 127 124 125 123 111 59 57 68 52 29 19 69 68 64 19 2 341 320 314 298 356 52 33 27 27 12 16 30 26 5 351 345 340 341 336 331 324 318 317 317
129 126 130 130 133 131 132 132 130 124 120 116 85 28 26 41 348 310 305 297 281 280 270 39 35 21 6 359 354 356 11 25 348 333 341 338 333 326 325 326 330 328 324
133 129 143 132 126 124 124 130 133 137 147 150 166 191 211 233 249 257 269 273 239 221 352 30 23 14 4 355 356 357 352 345 333 332 336 332 328 322 324 324 330 337 326
152 143 135 124 138 134 137 140 129 122 118 123 138 156 193 209 219 237 250 266 347 21 22 19 6 356 358 353 345 341 330 326 335 319 316 318 316 313 320 322 325 322 299
140 104 167 164 150 147 150 144 129 131 134 121 119 120 159 198 198 180 202 288 332 7 3 5 9 350 335 325 319 311 305 304 300 290 308 310 308 309 311 311 316 316 310
154 151 190 210 168 151 143 130 126 143 128 129 108 83 359 293 334 14 335 349 349 357 355 333 309 291 296 294 306 318 311 307 307 309 308 306 307 307 305 304 306 308 312
168 169 184 183 159 162 164 184 184 175 156 155 145 150 186 246 270 309 323 329 318 296 294 293 300 312 323 316 319 298 292 293 300 304 302 300 296 296 300 303 309 313 312
191 179 180 182 184 165 216 215 205 208 200 202 210 189 191 223 260 277 291 287 277 278 273 258 267 279 286 278 284 289 297 307 312 312 300 294 294 296 298 302 304 304 307
189 192 191 187 199 205 207 208 214 223 229 232 243 247 244 238 257 272 277 272 270 267 262 260 265 275 275 268 263 259 263 290 295 280 280 286 290 293 295 294 295 301 304
195 199 202 199 204 208 208 218 228 234 239 244 247 250 247 246 250 255 258 258 261 263 263 259 255 255 258 259 261 268 146 177 247 281 278 273 278 283 286 289 291 294 296
203 205 211 209 207 213 221 229 233 242 248 248 247 247 252 255 256 259 262 261 264 262 260 258 254 255 255 253 253 242 190 205 220 236 264 273 275 277 284 287 290 290 291